FW0577 Weather Reports


time (UTC)temp
F
wind
direction
speed
knots
gust
knots
rain 1hr
in
rain 24hr
in
rain mn
in
humidity
%
barometer
mb
20260507041100 59 155 0.0 0.0 0.00 0.00 0.00 66 1013.5
20260507040603 60 155 0.0 0.0 0.00 0.00 0.00 66 1013.3
20260507035602 60 155 0.0 0.0 0.00 0.00 0.00 66 1013.5
20260507035101 60 155 0.0 0.0 0.00 0.00 0.00 66 1013.5
20260507034827 60 155 0.0 0.0 0.00 0.00 0.00 66 1013.4
20260507034322 60 155 0.0 0.0 0.00 0.00 0.00 66 1013.3
20260507033601 61 155 0.0 0.0 0.00 0.00 0.00 65 1013.3
20260507033102 61 155 0.0 0.0 0.00 0.00 0.00 65 1013.2
20260507032603 61 155 0.0 0.0 0.00 0.00 0.00 65 1013.2
20260507032100 62 155 0.0 0.0 0.00 0.00 0.00 64 1013.3
20260507031602 62 155 0.0 0.0 0.00 0.00 0.00 64 1013.2
20260507031102 62 155 0.0 0.0 0.00 0.00 0.00 64 1013.2
20260507030824 63 155 0.0 0.0 0.00 0.00 0.00 64 1013.2
20260507025602 63 155 0.0 0.0 0.00 0.00 0.00 63 1013.1
20260507024533 64 155 0.0 0.0 0.00 0.00 0.00 62 1013.2
20260507024030 64 155 0.0 0.9 0.00 0.00 0.00 61 1013.1
20260507023529 65 155 0.0 0.9 0.00 0.00 0.00 61 1013.0
20260507022529 65 155 0.0 0.0 0.00 0.00 0.00 60 1013.0
20260507022029 66 155 0.0 0.0 0.00 0.00 0.00 60 1012.9
20260507021528 66 155 0.0 0.0 0.00 0.00 0.00 60 1012.8
20260507020502 66 155 0.0 0.0 0.00 0.00 0.00 59 1012.8
20260507020223 67 155 0.0 0.0 0.00 0.00 0.00 58 1013.0
20260507015455 67 155 0.0 0.0 0.00 0.00 0.00 57 1013.0
20260507014951 67 155 0.0 0.0 0.00 0.00 0.00 57 1013.0
20260507014451 67 155 0.0 0.0 0.00 0.00 0.00 57 1013.1
20260507013945 68 155 0.0 0.0 0.00 0.00 0.00 56 1013.1
20260507013431 68 155 0.0 0.0 0.00 0.00 0.00 56 1013.1
20260507012929 68 142 0.0 0.0 0.00 0.00 0.00 55 1013.1
20260507012648 68 142 0.0 1.7 0.00 0.00 0.00 55 1013.1
20260507011930 69 142 0.0 1.7 0.00 0.00 0.00 54 1013.1
20260507011429 69 143 0.0 2.6 0.00 0.00 0.00 54 1013.0
20260507010428 69 121 0.0 0.0 0.00 0.00 0.00 53 1013.0
20260507005930 70 121 0.0 4.3 0.00 0.00 0.00 52 1013.0
20260507005429 70 121 0.0 4.3 0.00 0.00 0.00 52 1013.1
20260507004934 70 123 0.0 0.0 0.00 0.00 0.00 52 1013.1
20260507004429 70 123 0.0 0.0 0.00 0.00 0.00 51 1013.1
20260507003928 71 123 0.0 0.9 0.00 0.00 0.00 51 1013.0
20260507003429 71 123 0.0 3.5 0.00 0.00 0.00 50 1013.1
20260507002929 71 121 0.0 3.5 0.00 0.00 0.00 49 1013.1
20260507002430 72 122 0.0 2.6 0.00 0.00 0.00 49 1013.1
20260507001929 72 123 0.0 2.6 0.00 0.00 0.00 49 1013.1
20260507001429 73 182 0.0 2.6 0.00 0.00 0.00 48 1013.0
20260507000930 73 250 0.0 1.7 0.00 0.00 0.00 47 1013.1
20260507000428 74 241 0.0 3.5 0.00 0.00 0.00 46 1013.1
20260506235929 75 239 0.0 3.5 0.00 0.00 0.00 45 1013.2
20260506235430 75 57 0.0 0.9 0.00 0.00 0.00 43 1013.2
20260506234930 76 46 0.0 0.0 0.00 0.00 0.00 42 1013.2
20260506234417 76 46 0.0 0.0 0.00 0.00 0.00 42 1013.2
20260506233909 76 46 0.0 0.9 0.00 0.00 0.00 41 1013.2
20260506233414 77 46 0.0 0.9 0.00 0.00 0.00 41 1013.3
20260506233123 77 44 0.0 0.0 0.00 0.00 0.00 41 1013.3
20260506232402 77 43 0.0 0.0 0.00 0.00 0.00 40 1013.4
20260506231903 77 42 0.0 0.0 0.00 0.00 0.00 41 1013.4
20260506231403 77 42 0.0 0.9 0.00 0.00 0.00 40 1013.4
20260506231106 77 42 0.0 0.9 0.00 0.00 0.00 39 1013.4
20260506230333 77 44 0.0 0.9 0.00 0.00 0.00 39 1013.4
20260506230054 77 46 0.0 1.7 0.00 0.00 0.00 40 1013.5
20260506225330 77 61 0.0 1.7 0.00 0.00 0.00 39 1013.5
20260506224832 77 307 0.0 1.7 0.00 0.00 0.00 39 1013.5
20260506224332 77 254 0.0 5.2 0.00 0.00 0.00 40 1013.6
20260506223830 77 211 0.0 5.2 0.00 0.00 0.00 41 1013.7
20260506223331 77 98 0.0 1.7 0.00 0.00 0.00 40 1013.6
20260506222829 76 91 0.0 3.5 0.00 0.00 0.00 41 1013.7
20260506222555 76 107 0.0 5.2 0.00 0.00 0.00 41 1013.7
20260506221831 76 75 0.0 5.2 0.00 0.00 0.00 40 1013.8
20260506221331 76 106 0.0 4.3 0.00 0.00 0.00 39 1013.8
20260506220830 76 109 0.0 6.1 0.00 0.00 0.00 39 1014.0
20260506220330 76 198 0.0 6.1 0.00 0.00 0.00 40 1014.1
20260506215830 76 141 0.0 3.5 0.00 0.00 0.00 41 1014.1
20260506215331 76 178 0.0 3.5 0.00 0.00 0.00 41 1014.2
20260506214831 76 130 0.0 1.7 0.00 0.00 0.00 40 1014.2
20260506214330 76 263 0.0 1.7 0.00 0.00 0.00 41 1014.2
20260506213832 76 85 0.0 7.0 0.00 0.00 0.00 40 1014.3
20260506213332 76 98 0.0 7.0 0.00 0.00 0.00 39 1014.6
20260506213047 76 94 0.0 4.3 0.00 0.00 0.00 39 1014.4
20260506212331 76 104 0.0 4.3 0.00 0.00 0.00 39 1014.7
20260506211618 76 5 0.0 2.6 0.00 0.00 0.00 39 1014.7
20260506210832 76 104 0.0 3.5 0.00 0.00 0.00 39 1014.7
20260506210315 76 94 0.0 3.5 0.00 0.00 0.00 39 1014.8
20260506205808 76 105 0.0 3.5 0.00 0.00 0.00 40 1014.7
20260506205306 76 77 0.0 3.5 0.00 0.00 0.00 39 1014.7
20260506204802 76 102 0.0 3.5 0.00 0.00 0.00 39 1014.8
20260506204552 76 140 0.0 7.0 0.00 0.00 0.00 39 1014.9
20260506203804 76 140 0.0 7.0 0.00 0.00 0.00 38 1014.8
20260506203532 76 222 0.0 3.5 0.00 0.00 0.00 38 1015.0
20260506203022 76 140 0.0 2.6 0.00 0.00 0.00 38 1014.9
20260506202520 76 42 0.0 1.7 0.00 0.00 0.00 38 1015.2
20260506202027 76 46 0.0 1.7 0.00 0.00 0.00 40 1015.1
20260506201304 75 84 0.0 0.9 0.00 0.00 0.00 40 1015.1
20260506201042 75 43 0.0 5.2 0.00 0.00 0.00 40 1015.2
20260506200302 75 284 0.0 5.2 0.00 0.00 0.00 39 1015.3
20260506195802 75 90 0.0 3.5 0.00 0.00 0.00 40 1015.2
20260506195305 75 97 0.0 4.3 0.00 0.00 0.00 40 1015.4
20260506194803 75 88 0.0 4.3 0.00 0.00 0.00 40 1015.4
20260506194303 76 281 0.0 1.7 0.00 0.00 0.00 39 1015.2
20260506193803 76 214 0.0 1.7 0.00 0.00 0.00 41 1015.3
20260506193537 76 128 0.0 4.3 0.00 0.00 0.00 40 1015.4
20260506192801 75 113 0.0 4.3 0.00 0.00 0.00 42 1015.5
20260506192301 75 72 0.0 3.5 0.00 0.00 0.00 42 1015.5
20260506192025 75 30 0.0 4.3 0.00 0.00 0.00 42 1015.5
20260506191301 74 158 0.0 4.3 0.00 0.00 0.00 42 1015.6
20260506190802 74 105 0.0 4.3 0.00 0.00 0.00 41 1015.6
20260506190301 74 271 0.0 4.3 0.00 0.00 0.00 39 1015.6
20260506185801 75 215 0.0 3.5 0.00 0.00 0.00 40 1015.7
20260506185301 74 223 0.0 2.6 0.00 0.00 0.00 42 1015.7
20260506185032 73 214 0.0 1.7 0.00 0.00 0.00 44 1015.6
20260506184304 73 71 0.0 4.3 0.00 0.00 0.00 44 1015.7
20260506183801 73 105 0.9 6.1 0.00 0.00 0.00 43 1015.7
20260506183300 72 0 0.9 6.1 0.00 0.00 0.00 35 1015.7
20260506182801 72 17 0.9 6.1 0.00 0.00 0.00 37 1015.8
20260506182306 72 14 0.0 6.1 0.00 0.00 0.00 38 1015.8
20260506181801 71 0 0.9 5.2 0.00 0.00 0.00 37 1015.8
20260506181301 71 0 0.9 6.1 0.00 0.00 0.00 36 1015.8
20260506180801 71 5 0.0 6.1 0.00 0.00 0.00 37 1015.8
20260506180301 71 5 0.0 4.3 0.00 0.00 0.00 38 1015.9
20260506175802 71 9 0.0 1.7 0.00 0.00 0.00 39 1015.9
20260506175301 71 9 0.0 1.7 0.00 0.00 0.00 38 1015.9
20260506174801 71 9 0.0 1.7 0.00 0.00 0.00 41 1015.9
20260506174518 71 19 0.0 2.6 0.00 0.00 0.00 39 1016.0
20260506174023 70 16 0.0 2.6 0.00 0.00 0.00 41 1016.0
20260506173300 70 5 0.0 4.3 0.00 0.00 0.00 45 1015.9
20260506172800 69 5 0.0 4.3 0.00 0.00 0.00 44 1015.9
20260506172300 69 20 0.0 5.2 0.00 0.00 0.00 44 1015.9
20260506171757 69 20 0.9 5.2 0.00 0.00 0.00 46 1015.8
20260506171249 69 0 0.9 4.3 0.00 0.00 0.00 46 1015.9
20260506170745 69 355 0.0 4.3 0.00 0.00 0.00 47 1015.9
20260506170242 68 15 0.0 1.7 0.00 0.00 0.00 48 1015.9
20260506165739 68 15 0.0 1.7 0.00 0.00 0.00 48 1015.8
20260506165456 68 36 0.0 0.9 0.00 0.00 0.00 49 1015.8
20260506164731 67 35 0.0 0.9 0.00 0.00 0.00 51 1015.8
20260506164230 67 9 0.0 4.3 0.00 0.00 0.00 51 1015.8
20260506163729 66 9 0.0 4.3 0.00 0.00 0.00 52 1015.7
20260506163229 65 9 0.0 2.6 0.00 0.00 0.00 53 1015.8
20260506162729 65 9 0.0 3.5 0.00 0.00 0.00 53 1015.7
20260506162451 65 9 0.0 3.5 0.00 0.00 0.00 55 1015.6
20260506161728 64 9 0.0 0.9 0.00 0.00 0.00 57 1015.6
20260506161229 63 5 0.9 4.3 0.00 0.00 0.00 58 1015.7
20260506160730 63 5 0.9 4.3 0.00 0.00 0.00 57 1015.8
20260506160229 63 0 0.0 4.3 0.00 0.00 0.00 59 1015.8
20260506155946 62 0 0.0 3.5 0.00 0.00 0.00 60 1015.7
20260506155229 62 0 0.9 5.2 0.00 0.00 0.00 61 1015.7
20260506154728 61 0 0.9 5.2 0.00 0.00 0.00 62 1015.6
20260506154229 60 5 0.0 4.3 0.00 0.00 0.00 62 1015.7
20260506153729 60 9 0.9 4.3 0.00 0.00 0.00 61 1015.7
20260506153229 60 5 0.9 5.2 0.00 0.00 0.00 61 1015.6
20260506152950 60 9 0.9 5.2 0.00 0.00 0.00 60 1015.7
20260506152228 60 355 0.0 3.5 0.00 0.00 0.00 61 1015.7
20260506151728 60 12 0.0 3.5 0.00 0.00 0.00 61 1015.7
20260506151231 60 14 0.0 4.3 0.00 0.00 0.00 61 1015.6
20260506150729 59 14 0.0 4.3 0.00 0.00 0.00 62 1015.6
20260506150454 59 20 0.0 3.5 0.00 0.00 0.00 63 1015.6
20260506145729 58 21 0.0 3.5 0.00 0.00 0.00 63 1015.5
20260506145228 58 28 0.0 3.5 0.00 0.00 0.00 64 1015.5
20260506144729 58 28 0.0 0.9 0.00 0.00 0.00 66 1015.5
20260506144229 57 29 0.0 0.9 0.00 0.00 0.00 67 1015.5
20260506143729 56 28 0.0 0.9 0.00 0.00 0.00 69 1015.4
20260506143451 56 28 0.0 0.9 0.00 0.00 0.00 71 1015.5
20260506142729 55 28 0.0 0.0 0.00 0.00 0.00 73 1015.4
20260506142228 55 28 0.0 0.0 0.00 0.00 0.00 76 1015.2
20260506141729 54 28 0.0 0.0 0.00 0.00 0.00 79 1015.2
20260506141452 53 28 0.0 0.0 0.00 0.00 0.00 80 1015.2
20260506140747 52 28 0.0 0.0 0.00 0.00 0.00 82 1015.1
20260506140231 51 28 0.0 0.0 0.00 0.00 0.00 82 1014.9
20260506135729 51 28 0.0 0.0 0.00 0.00 0.00 82 1014.7
20260506135228 51 28 0.0 0.0 0.00 0.00 0.00 82 1014.7
20260506134729 51 28 0.0 0.0 0.00 0.00 0.00 82 1014.7
20260506134228 51 28 0.0 0.0 0.00 0.00 0.00 82 1014.7
20260506133729 51 28 0.0 0.0 0.00 0.00 0.00 82 1014.7
20260506133229 51 28 0.0 0.0 0.00 0.00 0.00 82 1014.6
20260506132728 51 28 0.0 0.0 0.00 0.00 0.00 82 1014.7
20260506132229 51 28 0.0 0.0 0.00 0.00 0.00 82 1014.6
20260506131948 51 28 0.0 0.0 0.00 0.00 0.00 81 1014.4
20260506131209 51 28 0.0 0.0 0.00 0.00 0.00 81 1014.4
20260506130703 51 28 0.0 0.0 0.00 0.00 0.00 81 1014.3
20260506130203 51 28 0.0 0.0 0.00 0.00 0.00 80 1014.2
20260506125704 51 28 0.0 0.0 0.00 0.00 0.00 80 1014.1
20260506125423 51 28 0.0 0.0 0.00 0.00 0.00 80 1014.1
20260506124703 50 28 0.0 0.0 0.00 0.00 0.00 80 1014.1
20260506124423 50 29 0.0 0.0 0.00 0.00 0.00 80 1014.1
20260506123702 50 29 0.0 0.0 0.00 0.00 0.00 79 1014.2
20260506123203 50 29 0.0 0.0 0.00 0.00 0.00 79 1014.1
20260506122702 50 29 0.0 0.0 0.00 0.00 0.00 79 1014.1
20260506121702 51 29 0.0 0.0 0.00 0.00 0.00 80 1013.8
20260506121215 50 29 0.0 0.0 0.00 0.00 0.00 80 1013.9
20260506120703 50 29 0.0 0.0 0.00 0.00 0.00 79 1013.9
20260506120203 50 29 0.0 0.0 0.00 0.00 0.00 79 1013.9
20260506115702 51 29 0.0 0.0 0.00 0.00 0.00 79 1013.8
20260506114923 51 29 0.0 0.0 0.00 0.00 0.00 80 1013.7
20260506114204 50 29 0.0 0.0 0.00 0.00 0.00 80 1013.8
20260506113701 50 29 0.0 0.0 0.00 0.00 0.00 80 1013.9
20260506113451 51 29 0.0 0.0 0.00 0.00 0.00 81 1013.8
20260506112702 50 29 0.0 0.0 0.00 0.00 0.00 81 1013.7
20260506112203 50 29 0.0 0.0 0.00 0.00 0.00 82 1013.7
20260506111704 50 29 0.0 0.0 0.00 0.00 0.00 83 1013.7
20260506111203 50 29 0.0 0.0 0.00 0.00 0.00 83 1013.8
20260506110703 50 29 0.0 0.0 0.00 0.00 0.00 84 1013.7
20260506110205 50 29 0.0 0.0 0.00 0.00 0.00 84 1013.7
20260506105925 50 29 0.0 0.0 0.00 0.00 0.00 84 1013.7
20260506105203 50 29 0.0 0.0 0.00 0.00 0.00 84 1013.7
20260506104702 50 29 0.0 0.0 0.00 0.00 0.00 83 1013.7
20260506104204 50 29 0.0 0.0 0.00 0.00 0.00 83 1013.7
20260506103703 50 29 0.0 0.0 0.00 0.00 0.00 83 1013.7
20260506103204 50 29 0.0 0.0 0.00 0.00 0.00 83 1013.8
20260506102703 50 29 0.0 0.0 0.00 0.00 0.00 83 1013.8
20260506102204 50 29 0.0 0.0 0.00 0.00 0.00 83 1013.8
20260506101425 50 29 0.0 0.0 0.00 0.00 0.00 83 1013.8
20260506100702 50 29 0.0 0.0 0.00 0.00 0.00 83 1013.7
20260506100216 50 29 0.0 0.0 0.00 0.00 0.00 83 1013.7
20260506095704 50 29 0.0 0.0 0.00 0.00 0.00 82 1013.8
20260506095431 50 29 0.0 0.0 0.00 0.00 0.00 82 1013.8
20260506094702 50 29 0.0 0.0 0.00 0.00 0.00 82 1013.8
20260506094202 50 29 0.0 0.0 0.00 0.00 0.00 81 1013.9
20260506093930 51 29 0.0 0.0 0.00 0.00 0.00 81 1013.9
20260506093202 51 29 0.0 0.0 0.00 0.00 0.00 81 1013.8
20260506092704 51 29 0.0 0.0 0.00 0.00 0.00 81 1013.9
20260506092420 51 29 0.0 0.0 0.00 0.00 0.00 81 1013.9
20260506091703 51 29 0.0 0.0 0.00 0.00 0.00 81 1013.8
20260506091203 51 29 0.0 0.0 0.00 0.00 0.00 81 1013.8
20260506090919 51 29 0.0 0.0 0.00 0.00 0.00 80 1013.8
20260506090203 51 29 0.0 0.0 0.00 0.00 0.00 80 1013.9
20260506085702 51 29 0.0 0.0 0.00 0.00 0.00 80 1013.9
20260506085202 51 29 0.0 0.0 0.00 0.00 0.00 79 1013.9
20260506084702 51 29 0.0 0.0 0.00 0.00 0.00 79 1014.0
20260506084203 51 29 0.0 0.0 0.00 0.00 0.00 79 1014.0
20260506083702 51 29 0.0 0.0 0.00 0.00 0.00 79 1014.0
20260506083202 51 29 0.0 0.0 0.00 0.00 0.00 79 1014.2
20260506082921 51 29 0.0 0.0 0.00 0.00 0.00 79 1014.2
20260506082429 51 29 0.0 0.0 0.00 0.00 0.00 78 1014.1
20260506081703 51 29 0.0 0.0 0.00 0.00 0.00 78 1014.2
20260506081203 52 29 0.0 0.0 0.00 0.00 0.00 78 1014.0
20260506080703 52 29 0.0 0.0 0.00 0.00 0.00 78 1014.0
20260506080216 52 29 0.0 0.0 0.00 0.00 0.00 78 1014.1
20260506073201 52 29 0.0 0.0 0.00 0.00 0.00 76 1013.9
20260506072704 52 29 0.0 0.0 0.00 0.00 0.00 76 1014.0
20260506072204 52 29 0.0 0.0 0.00 0.00 0.00 75 1014.0
20260506071434 53 29 0.0 0.0 0.00 0.00 0.00 75 1013.9
20260506070703 53 29 0.0 0.0 0.00 0.00 0.00 74 1013.9
20260506070202 53 29 0.0 0.0 0.00 0.00 0.00 74 1013.7
20260506062203 54 29 0.0 0.0 0.00 0.00 0.00 71 1013.3
20260506061926 54 29 0.0 0.0 0.00 0.00 0.00 71 1013.3
20260506061422 55 29 0.0 0.0 0.00 0.00 0.00 70 1013.4
20260506060704 55 29 0.0 0.0 0.00 0.00 0.00 71 1013.4
20260506060201 55 29 0.0 0.0 0.00 0.00 0.00 71 1013.3
20260506051203 54 29 0.0 0.0 0.00 0.00 0.00 71 1012.9
20260506050920 54 29 0.0 0.0 0.00 0.00 0.00 71 1012.8
20260506050202 54 29 0.0 0.0 0.00 0.00 0.00 71 1012.8
20260506044920 54 29 0.0 0.0 0.00 0.00 0.00 71 1012.9
20260506044202 54 29 0.0 0.0 0.00 0.00 0.00 71 1012.9
20260506043702 54 29 0.0 0.0 0.00 0.00 0.00 71 1012.7
20260506043203 54 29 0.0 0.0 0.00 0.00 0.00 71 1012.6
20260506042703 54 29 0.0 0.0 0.00 0.00 0.00 70 1012.6
20260506042202 54 29 0.0 0.0 0.00 0.00 0.00 69 1012.6
20260506041703 55 29 0.0 0.0 0.00 0.00 0.00 69 1012.5
20260506041203 55 29 0.0 0.0 0.00 0.00 0.00 68 1012.5